Location: Newark
(43.4306°N, 0.3089°E)
Time: 05:33:19
(UTC+00:00)

Vanguard 2 Rocket - All Passes

Search period start: 22 August 2019 00:00
Search period end: 01 September 2019 00:00
Orbit: 553 x 3327 km, 32.9° (Epoch: 20 August)

Date Brightness Start Highest point End Pass type
(mag) Time Alt. Az. Time Alt. Az. Time Alt. Az.
22 Aug - 01:47:03 10° SSW 01:56:57 33° SE 02:11:28 10° E visible
22 Aug - 03:58:02 10° WSW 04:11:39 56° SSE 04:30:53 10° E visible
22 Aug - 06:11:54 10° W 06:28:41 58° S 06:48:04 10° ESE daylight
22 Aug - 08:28:10 10° W 08:45:33 41° SSW 09:01:57 10° SSE daylight
22 Aug - 10:49:43 10° W 11:00:06 17° SW 11:09:26 10° SSW daylight
23 Aug - 00:49:28 10° S 00:57:11 23° SE 01:07:55 10° E visible
23 Aug - 02:58:48 10° SW 03:10:37 49° SSE 03:28:26 10° E visible
23 Aug - 05:11:39 10° WSW 05:26:52 60° S 05:46:37 10° ESE daylight
23 Aug - 07:26:45 10° W 07:44:01 48° SSW 08:02:01 10° SE daylight
23 Aug - 09:45:22 10° W 09:59:36 25° SW 10:12:35 10° S daylight
23 Aug - 23:53:41 10° SSE 23:57:53 13° SE 00:02:55 10° ESE visible
24 Aug - 02:00:04 10° SW 02:10:07 40° SSE 02:25:41 10° E visible
24 Aug - 04:11:50 10° WSW 04:25:18 58° S 04:44:40 10° ESE visible
24 Aug - 06:25:57 10° W 06:42:17 53° SSW 07:01:24 10° SE daylight
24 Aug - 08:42:42 10° W 08:58:39 33° SW 09:14:08 10° SSE daylight
25 Aug - 01:01:56 10° SSW 01:10:11 30° SE 01:22:39 10° E visible
25 Aug - 03:12:27 10° WSW 03:24:09 54° SSE 03:42:17 10° E visible
25 Aug - 05:25:38 10° W 05:40:34 57° S 06:00:07 10° ESE daylight
25 Aug - 07:41:03 10° W 07:57:21 40° SSW 08:14:39 10° SSE daylight
25 Aug - 10:01:45 10° W 10:12:25 17° SW 10:22:35 10° SSW daylight
26 Aug - 00:04:39 10° S 00:10:45 20° SE 00:19:08 10° E visible
26 Aug - 02:13:30 10° SW 02:23:31 46° SSE 02:39:40 10° E visible
26 Aug - 04:25:46 10° WSW 04:39:02 58° S 04:58:17 10° ESE visible
26 Aug - 06:40:07 10° W 06:55:49 47° SSW 07:14:22 10° SE daylight
26 Aug - 08:57:53 10° W 09:11:40 25° SW 09:25:24 10° S daylight
26 Aug - 23:10:52 10° SE 23:11:42 10° SE 23:12:36 10° ESE visible
27 Aug - 01:15:01 10° SSW 01:23:25 37° SSE 01:36:54 10° E visible
27 Aug - 03:26:18 10° WSW 03:37:51 56° S 03:56:01 10° ESE visible
27 Aug - 05:39:44 10° W 05:54:14 52° SSW 06:13:20 10° SE daylight
27 Aug - 07:55:42 10° W 08:10:35 32° SW 08:26:37 10° SSE daylight
28 Aug - 00:17:05 10° SSW 00:23:50 26° SE 00:33:59 10° E visible
28 Aug - 02:27:13 10° WSW 02:37:07 51° SSE 02:53:30 10° E visible
28 Aug - 04:39:49 10° W 04:52:47 55° S 05:11:43 10° ESE visible
28 Aug - 06:54:29 10° W 07:09:16 39° SSW 07:26:49 10° SSE daylight
28 Aug - 09:14:28 10° WSW 09:24:40 17° SW 09:35:00 10° SSW daylight
28 Aug - 23:20:09 10° S 23:24:41 16° SE 23:30:36 10° ESE visible
29 Aug - 01:28:29 10° SW 01:36:53 43° SSE 01:50:54 10° E visible
29 Aug - 03:40:17 10° WSW 03:51:38 55° S 04:09:37 10° ESE visible
29 Aug - 05:53:58 10° W 06:07:52 45° SSW 06:26:10 10° SE daylight
29 Aug - 08:11:01 10° W 08:23:46 24° SW 08:37:36 10° S daylight
30 Aug - 00:30:12 10° SSW 00:37:08 33° SSE 00:48:18 10° E visible
30 Aug - 02:41:06 10° WSW 02:50:53 53° S 03:07:13 10° ESE visible
30 Aug - 04:53:58 10° W 05:06:33 49° SSW 05:24:50 10° SE daylight
30 Aug - 07:09:15 10° W 07:22:40 30° SSW 07:38:32 10° SSE daylight
30 Aug - 23:32:29 10° SSW 23:37:50 23° SE 23:45:39 10° E visible
31 Aug - 01:42:15 10° WSW 01:50:33 47° SSE 02:04:45 10° E visible
31 Aug - 03:54:23 10° WSW 04:05:28 51° S 04:22:59 10° ESE visible
31 Aug - 06:08:25 10° W 06:21:27 36° SSW 06:38:26 10° SSE daylight
31 Aug - 08:27:56 10° WSW 08:36:59 16° SW 08:46:38 10° SSW daylight
31 Aug - 22:36:04 10° SSE 22:38:53 13° SE 22:42:16 10° ESE night (unlit)
